Weather History for Alexandria, Egypt

Change the Weather History Date:

Saturday, February 23, 2013

  Actual Average Record
Temperature  
Mean Temperature 64 °F -  
Max Temperature 68 °F 66 °F 78 °F (2002)
Min Temperature 59 °F 50 °F 41 °F (1999)
Degree Days  
Heating Degree Days 2    
Growing Degree Days 14 (Base 50)    
Moisture  
Dew Point 54 °F    
Average Humidity 73    
Maximum Humidity 83    
Minimum Humidity 56    
Precipitation  
Precipitation 0.00 in 0.02 in - ()
Sea Level Pressure  
Sea Level Pressure 30.03 in    
Wind  
Wind Speed 11 mph ()    
Max Wind Speed 17 mph    
Max Gust Speed -    
Visibility 6.1 miles    
Events      
Averages and records for this station are not official NWS values.
T = Trace of Precipitation, MM = Missing Value Source: Averaged Metar Reports

Daily Weather History Graph

Daily Weather History Graph

Search for Another Location

Airport:

Trip Planner

Search our weather history database for the weather conditions in past years. The results will help you decide how hot, cold, wet, or windy it might be!

Date:

Astronomy

Feb. 23, 2013 Rise Set
Actual Time 6:33 AM EET 5:53 PM EET
Civil Twilight 6:09 AM EET 6:18 PM EET
Nautical Twilight 5:40 AM EET 6:46 PM EET
Astronomical Twilight 5:12 AM EET 7:14 PM EET
Moon 3:49 PM EET (2/23) 4:37 AM EET (2/23)
Length of Visible Light 12h 09m
Length of Day
11h 20m
Waxing Gibbous, 94% of the Moon is Illuminated
Feb 23
Waxing Gibbous
Feb 25
Full
Mar 4
Last Quarter
Mar 11
New
Mar 19
First Quarter

Hourly Weather History & Observations

Time (EET) Temp. Dew Point Humidity Pressure Visibility Wind Dir Wind Speed Gust Speed Precip Events Conditions
12:00 AM 60.8 °F 51.8 °F 72% 29.86 in - West 10.4 mph - N/A   Clear
1:00 AM 60.8 °F 51.8 °F 72% 29.89 in - West 10.4 mph - N/A   Clear
2:00 AM 61 °F 53 °F 66% 29.91 in 6 mi West 12.7 mph - -  
2:00 AM 60.8 °F 51.8 °F 72% 29.92 in - West 12.7 mph - N/A   Clear
3:00 AM 60.8 °F 53.6 °F 77% 29.92 in - WNW 13.8 mph - N/A   Clear
4:00 AM 60.8 °F 51.8 °F 72% 29.92 in - West 12.7 mph - N/A   Clear
5:00 AM 60.8 °F 51.8 °F 72% 29.92 in - West 12.7 mph - N/A   Clear
6:00 AM 60.8 °F 53.6 °F 77% 29.95 in - West 16.1 mph - N/A   Clear
7:00 AM 60.8 °F 53.6 °F 77% 29.98 in - West 10.4 mph - N/A   Clear
8:00 AM 63 °F 52 °F 59% 30.01 in 6 mi WNW 11.5 mph - -   Partly Cloudy
8:00 AM 62.6 °F 51.8 °F 68% 30.01 in 6.2 mi WNW 11.5 mph - N/A   Scattered Clouds
9:00 AM 64.4 °F 51.8 °F 64% 30.01 in 6.2 mi West 11.5 mph - N/A   Scattered Clouds
10:00 AM 64.4 °F 59.0 °F 83% 30.04 in 6.2 mi WSW 13.8 mph - N/A   Scattered Clouds
11:00 AM 62.6 °F 57.2 °F 82% 30.06 in 6.2 mi West 15.0 mph - N/A   Scattered Clouds
12:00 PM 66.2 °F 57.2 °F 73% 30.06 in 6.2 mi West 17.3 mph - N/A   Scattered Clouds
1:00 PM 66.2 °F 57.2 °F 73% 30.06 in 6.2 mi West 16.1 mph - N/A   Scattered Clouds
2:00 PM 68 °F 56 °F 56% 30.06 in 6 mi West 15.0 mph - -   Mostly Cloudy
2:00 PM 68.0 °F 55.4 °F 64% 30.06 in 6.2 mi West 15.0 mph - N/A   Scattered Clouds
3:00 PM 66.2 °F 57.2 °F 73% 30.06 in 6.2 mi West 13.8 mph - N/A   Scattered Clouds
4:00 PM 66.2 °F 55.4 °F 68% 30.06 in 6.2 mi WNW 11.5 mph - N/A   Scattered Clouds
5:00 PM 64.4 °F 55.4 °F 73% 30.06 in 6.2 mi WNW 9.2 mph - N/A   Scattered Clouds
6:00 PM 62.6 °F 55.4 °F 77% 30.09 in 6.2 mi WNW 12.7 mph - N/A   Scattered Clouds
7:00 PM 60.8 °F 53.6 °F 77% 30.12 in - WNW 11.5 mph - N/A   Clear
8:00 PM 62 °F 54 °F 66% 30.15 in 6 mi WNW 9.2 mph - -  
8:00 PM 60.8 °F 53.6 °F 77% 30.15 in - WNW 9.2 mph - N/A   Clear
9:00 PM 60.8 °F 55.4 °F 82% 30.15 in - West 9.2 mph - N/A   Clear
10:00 PM 59.0 °F 53.6 °F 82% 30.18 in - WNW 9.2 mph - N/A   Clear
11:00 PM 59.0 °F 53.6 °F 82% 30.18 in - WNW 8.1 mph - N/A   Clear